User: anonymous   Login
Location: Unspecified
(0.0000°N, 0.0000°E)
Time: 07:43:04
(UTC+00:00)
Language:

USA 169 - Orbit

View from above orbital plane
View from above orbital plane
View from above satellite
View from above satellite

Ground track
Ground track

The orbit data is extracted from the following two-line orbital elements,

1 27711U 03012A   18217.59872332 0.00000000  00000-0  00000-0 0    05
2 27711   8.0543  49.5593 0008276 196.8747 163.1096  1.00270000    06
Epoch (UTC): 05 August 2018 14:22:09
Eccentricity: 0.0008276
inclination: 8.0543°
perigee height: 35752 km
apogee height: 35821 km
right ascension of ascending node: 49.5593°
argument of perigee: 196.8747°
revolutions per day: 1.00270000
mean anomaly at epoch: 163.1096°
orbit number at epoch: 0

The dashed part of the orbit path shows where the satellite is in the earth's shadow,  

DLR